Hourly Data Report for July 22, 2021

CARIBOU POINT (AUT)
NOVA SCOTIA
Current Station Operator: ECCC - MSC

45°46'00.000" N
62°41'00.000" W
2.40 m
8200774
71415
WBK

Download Data

Hourly Data (July 2021)
Hourly Data Report for July 22, 2021
TIME
LST
Temp Definition
°C
Dew Point Definition
°C
Rel Hum Definition
%
Precip. Amount Definition
mm

Wind Dir Definition
10's deg

Wind Spd Definition
km/h
Visibility Definition
km
Stn Press Definition
kPa
Hmdx Definition


Wind Chill Definition


Weather Definition


00:00 18.0 17.4 96 0.0 17 10   100.96     LegendNANA
01:00 18.4 17.6 96 0.0 21 11   100.96     LegendNANA
02:00 18.6 17.9 95 0.0 23 7   100.96     LegendNANA
03:00 18.9 18.1 95 0.0 25 6   100.96     LegendNANA
04:00 18.1 17.3 96 0.0 34 2   100.93     LegendNANA
05:00 17.6 17.0 97 0.0 15 10   100.92     LegendNANA
06:00 17.7 17.3 98 0.0 16 9   100.88     LegendNANA
07:00 17.8 17.3 97 0.0 17 9   100.85     LegendNANA
08:00 18.2 17.8 97 0.0 29 10   100.89     LegendNANA
09:00 17.0 16.5 97 4.5 3 13   100.90     LegendNANA
10:00 17.1 16.7 98 5.5 3 12   100.93     LegendNANA
11:00 16.8 16.4 98 4.6 7 13   100.90     LegendNANA
12:00 16.9 16.6 98 2.2 10 11   100.87     LegendNANA
13:00 17.1 16.7 98 2.3 7 15   100.80     LegendNANA
14:00 17.6 17.0 96 0.4 8 3   100.81     LegendNANA
15:00 17.3 16.3 94 0.5 36 11   100.85     LegendNANA
16:00 16.5 16.3 99 4.5 33 35   100.92     LegendNANA
17:00 16.2 15.5 95 2.4 1 24   100.93     LegendNANA
18:00 16.6 15.2 91 0.0 33 23   100.97     LegendNANA
19:00 16.5 14.8 90 0.0 33 24   101.06     LegendNANA
20:00 16.1 14.4 90 0.0 33 19   101.16     LegendNANA
21:00 16.0 14.0 88 0.0 34 25   101.24     LegendNANA
22:00 15.9 14.2 89 0.0 33 22   101.26     LegendNANA
23:00 15.9 13.6 86 0.0 33 27   101.23     LegendNANA

Notes on Data Quality.

Legend

  • E = Estimated
  • M = Missing
  • NA = Not Available*
  • [empty] = Indicates an unobserved value
Date modified: